Eveleth, MN

10:36 AM CDT on August 28, 2016 (GMT -0500)
Eveleth-Virginia Municipal

Weather History for KEVM - April, 2013

Change the Weather History Date:

Friday, April 12, 2013

  Actual Average Record
Temperature  
Mean Temperature 26 °F -  
Max Temperature 30 °F 48 °F 75 °F (2015)
Min Temperature 22 °F 27 °F 11 °F (1992)
Degree Days  
Heating Degree Days 39    
Moisture  
Dew Point 21 °F    
Average Humidity 81    
Maximum Humidity 89    
Minimum Humidity 68    
Precipitation  
Precipitation 0.02 in - - ()
Sea Level Pressure  
Sea Level Pressure 29.80 in    
Wind  
Wind Speed 11 mph (NE)    
Max Wind Speed 15 mph    
Max Gust Speed 23 mph    
Visibility 3 miles    
Events Snow    
Averages and records for this station are not official NWS values.
T = Trace of Precipitation, MM = Missing Value Source: NWS Daily Summary

Daily Weather History Graph

Daily Weather History Graph

Search for Another Location

Airport or City:

Trip Planner

Search our weather history database for the weather conditions in past years. The results will help you decide how hot, cold, wet, or windy it might be!

Date:

Astronomy

Apr. 12, 2013 Rise Set
Actual Time 6:26 AM CDT 7:55 PM CDT
Civil Twilight 5:54 AM CDT 8:27 PM CDT
Nautical Twilight 5:16 AM CDT 9:06 PM CDT
Astronomical Twilight 4:34 AM CDT 9:48 PM CDT
Moon 7:27 AM CDT (4/12) 10:37 PM CDT (4/12)
Length of Visible Light 14h 32m
Length of Day
13h 28m
Waxing Crescent, 5% of the Moon is Illuminated
Apr 12
Waxing Crescent
Apr 18
First Quarter
Apr 25
Full
May 2
Last Quarter
May 9
New

Hourly Weather History & Observations

Time (CDT) Temp. Windchill Dew Point Humidity Pressure Visibility Wind Dir Wind Speed Gust Speed Precip Events Conditions
12:09 AM 30.0 °F 21.1 °F 20.7 °F 68% 29.85 in 10.0 mi NE 10.4 mph - N/A   Overcast
12:30 AM 27.5 °F 18.0 °F 22.5 °F 81% 29.85 in 1.8 mi NE 10.4 mph - N/A Snow Light Snow
12:49 AM 27.5 °F 16.8 °F 23.9 °F 86% 29.84 in 1.8 mi NE 12.7 mph 18.4 mph N/A Snow Light Snow
1:09 AM 27.3 °F 16.1 °F 24.1 °F 88% 29.83 in 1.8 mi NE 13.8 mph 20.7 mph N/A Snow Light Snow
1:30 AM 27.5 °F 16.3 °F 23.7 °F 86% 29.82 in 4.0 mi ENE 13.8 mph 20.7 mph N/A Snow Light Snow
1:49 AM 27.5 °F 16.8 °F 23.5 °F 85% 29.81 in 3.0 mi ENE 12.7 mph 23.0 mph N/A Snow Light Snow
2:09 AM 26.2 °F 16.4 °F 22.8 °F 87% 29.80 in 1.8 mi NE 10.4 mph 19.6 mph N/A Snow Light Snow
2:30 AM 26.2 °F 14.2 °F 22.8 °F 87% 29.79 in 2.5 mi NE 15.0 mph 18.4 mph 0.01 in Snow Light Snow
2:49 AM 26.2 °F 15.2 °F 22.1 °F 84% 29.79 in 4.0 mi ENE 12.7 mph 19.6 mph 0.01 in Snow Light Snow
3:10 AM 26.2 °F 16.4 °F 21.9 °F 84% 29.78 in 4.0 mi NE 10.4 mph 20.7 mph N/A Snow Light Snow
3:29 AM 25.9 °F 14.8 °F 22.1 °F 86% 29.78 in 2.5 mi NE 12.7 mph 19.6 mph N/A Snow Light Snow
3:49 AM 25.7 °F 15.7 °F 22.1 °F 86% 29.78 in 2.5 mi NE 10.4 mph 20.7 mph N/A Snow Light Snow
4:10 AM 25.7 °F 15.1 °F 22.1 °F 86% 29.78 in 2.5 mi NE 11.5 mph 19.6 mph N/A Snow Light Snow
4:49 AM 25.9 °F 14.3 °F 21.2 °F 82% 29.78 in 7.0 mi NE 13.8 mph 21.9 mph N/A Snow Light Snow
5:10 AM 25.7 °F 15.7 °F 21.2 °F 83% 29.78 in 5.0 mi NE 10.4 mph - N/A Snow Light Snow
5:29 AM 25.7 °F 13.5 °F 21.2 °F 83% 29.78 in 7.0 mi NE 15.0 mph 19.6 mph N/A Snow Light Snow
5:49 AM 25.7 °F 15.1 °F 21.0 °F 82% 29.78 in 5.0 mi NE 11.5 mph 17.3 mph N/A Snow Light Snow
6:10 AM 25.7 °F 15.1 °F 21.0 °F 82% 29.78 in 4.0 mi NE 11.5 mph - N/A Snow Light Snow
6:29 AM 25.3 °F 15.3 °F 21.2 °F 84% 29.78 in 1.8 mi NE 10.4 mph - N/A Snow Light Snow
6:49 AM 24.8 °F 15.3 °F 21.2 °F 86% 29.78 in 1.2 mi NE 9.2 mph - N/A Snow Light Snow
7:10 AM 24.8 °F 14.0 °F 21.4 °F 87% 29.78 in 1.0 mi NE 11.5 mph 17.3 mph N/A Snow Light Snow
7:29 AM 24.8 °F 14.6 °F 21.4 °F 87% 29.78 in 1.0 mi NE 10.4 mph 16.1 mph N/A Snow Light Snow
7:49 AM 24.8 °F 15.3 °F 21.2 °F 86% 29.78 in 1.8 mi NE 9.2 mph - N/A Snow Light Snow
8:10 AM 25.3 °F 16.7 °F 21.2 °F 84% 29.78 in 2.0 mi NE 8.1 mph - N/A Snow Light Snow
8:29 AM 25.7 °F 15.1 °F 21.2 °F 83% 29.78 in 2.5 mi NE 11.5 mph 18.4 mph N/A Snow Light Snow
8:49 AM 25.5 °F 15.5 °F 21.2 °F 84% 29.78 in 1.8 mi NE 10.4 mph - N/A Snow Light Snow
9:10 AM 25.7 °F 14.6 °F 21.2 °F 83% 29.78 in 1.2 mi NE 12.7 mph 19.6 mph N/A Snow Light Snow
9:49 AM 26.2 °F 14.2 °F 21.2 °F 81% 29.78 in 1.0 mi NE 15.0 mph 20.7 mph N/A Snow Light Snow
10:10 AM 27.0 °F 17.3 °F 21.9 °F 81% 29.79 in 1.2 mi NE 10.4 mph - N/A Snow Light Snow
10:29 AM 27.5 °F 18.0 °F 21.6 °F 78% 29.79 in 2.5 mi NE 10.4 mph 17.3 mph N/A Snow Light Snow
10:49 AM 26.8 °F 15.9 °F 20.5 °F 77% 29.79 in 2.0 mi NE 12.7 mph 19.6 mph N/A Snow Light Snow
11:10 AM 27.5 °F 15.9 °F 20.3 °F 74% 29.80 in 4.0 mi NE 15.0 mph 20.7 mph N/A Snow Light Snow
11:29 AM 27.0 °F 17.3 °F 21.7 °F 81% 29.80 in 1.5 mi NE 10.4 mph - N/A Snow Light Snow
11:50 AM 27.5 °F 16.3 °F 21.0 °F 77% 29.80 in 1.8 mi NE 13.8 mph 20.7 mph N/A Snow Light Snow
12:09 PM 27.5 °F 16.3 °F 21.4 °F 78% 29.80 in 1.8 mi NE 13.8 mph 19.6 mph N/A Snow Light Snow
12:29 PM 27.5 °F 17.4 °F 21.7 °F 79% 29.79 in 1.8 mi NE 11.5 mph 16.1 mph N/A Snow Light Snow
12:50 PM 27.5 °F 18.6 °F 20.1 °F 74% 29.79 in 2.5 mi NE 9.2 mph - N/A Snow Light Snow
1:09 PM 28.6 °F 19.9 °F 21.6 °F 75% 29.79 in 2.5 mi NE 9.2 mph - N/A Snow Light Snow
1:29 PM 29.7 °F 21.3 °F 21.4 °F 71% 29.79 in 4.0 mi NNE 9.2 mph - N/A Snow Light Snow
1:50 PM 29.7 °F 20.1 °F 21.6 °F 72% 29.79 in 7.0 mi NE 11.5 mph 17.3 mph N/A   Overcast
2:09 PM 29.5 °F 19.9 °F 21.7 °F 73% 29.78 in 7.0 mi NNE 11.5 mph - N/A Snow Light Snow
2:29 PM 30.0 °F 21.1 °F 21.7 °F 71% 29.78 in 5.0 mi NNE 10.4 mph - N/A Snow Light Snow
2:50 PM 30.0 °F 21.7 °F 21.7 °F 71% 29.78 in 4.0 mi NNE 9.2 mph - N/A Snow Light Snow
3:09 PM 30.0 °F 23.2 °F 21.6 °F 71% 29.79 in 5.0 mi NNE 6.9 mph - N/A   Haze
3:29 PM 29.1 °F 20.0 °F 21.9 °F 74% 29.79 in 4.0 mi NNE 10.4 mph - N/A Snow Light Snow
3:49 PM 29.1 °F 20.0 °F 21.6 °F 73% 29.79 in 4.0 mi NNE 10.4 mph - N/A Snow Light Snow
4:09 PM 29.3 °F 20.2 °F 21.7 °F 73% 29.79 in 7.0 mi NNE 10.4 mph - N/A Snow Light Snow
4:29 PM 27.5 °F 19.3 °F 21.6 °F 78% 29.79 in 2.5 mi NNE 8.1 mph - N/A Snow Light Snow
4:50 PM 27.5 °F 20.2 °F 22.5 °F 81% 29.80 in 2.5 mi NNE 6.9 mph - N/A Snow Light Snow
5:09 PM 28.2 °F 19.5 °F 21.4 °F 76% 29.80 in 5.0 mi NNE 9.2 mph - N/A Snow Light Snow
5:29 PM 27.5 °F 20.2 °F 20.8 °F 76% 29.80 in 5.0 mi NNE 6.9 mph - N/A Snow Light Snow
5:50 PM 28.8 °F 21.7 °F 21.9 °F 76% 29.80 in 7.0 mi NNE 6.9 mph - N/A Snow Light Snow
6:10 PM 27.5 °F 18.6 °F 21.7 °F 79% 29.81 in 2.5 mi NE 9.2 mph - N/A Snow Light Snow
6:29 PM 26.6 °F 17.5 °F 21.0 °F 79% 29.81 in 4.0 mi NE 9.2 mph - N/A Snow Light Snow
6:50 PM 27.5 °F 19.3 °F 21.2 °F 77% 29.81 in 7.0 mi NE 8.1 mph - N/A Snow Light Snow
7:09 PM 27.1 °F 18.2 °F 22.3 °F 82% 29.81 in 2.5 mi NE 9.2 mph - N/A Snow Light Snow
7:29 PM 26.2 °F 19.6 °F 21.4 °F 82% 29.81 in 4.0 mi NE 5.8 mph - N/A Snow Light Snow
7:50 PM 25.7 °F 17.1 °F 21.6 °F 84% 29.82 in 2.5 mi NE 8.1 mph - N/A Snow Light Snow
8:10 PM 24.8 °F 16.1 °F 21.4 °F 87% 29.82 in 2.0 mi NE 8.1 mph - N/A Snow Light Snow
8:29 PM 24.8 °F 16.1 °F 21.6 °F 87% 29.82 in 2.0 mi NE 8.1 mph - N/A Snow Light Snow
8:50 PM 24.4 °F 18.6 °F 21.2 °F 87% 29.83 in 2.0 mi NE 4.6 mph - N/A Snow Light Snow
9:09 PM 23.9 °F 16.8 °F 21.0 °F 89% 29.83 in 2.0 mi NNE 5.8 mph - N/A Snow Light Snow
9:30 PM 23.7 °F 17.8 °F 20.8 °F 89% 29.83 in 2.0 mi NE 4.6 mph - 0.01 in Snow Light Snow
9:49 PM 23.7 °F 17.8 °F 20.7 °F 88% 29.83 in 2.5 mi NE 4.6 mph - 0.01 in Snow Light Snow
10:09 PM 23.7 °F 17.8 °F 21.0 °F 89% 29.84 in 2.5 mi NE 4.6 mph - N/A Snow Light Snow
10:30 PM 23.5 °F 19.1 °F 20.7 °F 89% 29.83 in 3.0 mi NE 3.5 mph - N/A Snow Light Snow
10:49 PM 22.8 °F 12.9 °F 19.4 °F 87% 29.83 in 4.0 mi NNE 9.2 mph - N/A Snow Light Snow
11:09 PM 22.5 °F 15.1 °F 18.9 °F 86% 29.83 in 3.0 mi NE 5.8 mph - N/A Snow Light Snow
11:30 PM 22.5 °F 16.3 °F 19.2 °F 87% 29.83 in 3.0 mi NNE 4.6 mph - N/A Snow Light Snow
11:49 PM 22.5 °F 17.8 °F 19.2 °F 87% 29.83 in 4.0 mi NNE 3.5 mph - N/A Snow Light Snow